• In Belarus
  • List of Countries
  • For 7 days
  • Water Temperature
  • Satellite Maps
  • Weather Map
  • Weather Widgets
  • user-avatar
    Login

    Hourly Weather Nashavar

    Today, 21 July, Saturday

    Time Temperature Precipitation Wind Pressure Humidity
    00:00 +37°C° 0.4 mm 2 mps 721 mmHg 51%
    01:00 +37°C° 0.4 mm 2 mps 721 mmHg 52%
    02:00 +36°C° 0.4 mm 2 mps 721 mmHg 53%
    03:00 +36°C° 0.9 mm 2 mps 721 mmHg 55%
    04:00 +35°C° 0.9 mm 1 mps 721 mmHg 56%
    05:00 +34°C° 0 mm 1 mps 721 mmHg 59%
    06:00 +34°C° 0.8 mm 1 mps 721 mmHg 58%
    07:00 +34°C° 0.8 mm 1 mps 721 mmHg 56%
    08:00 +35°C° 0.8 mm 1 mps 721 mmHg 55%
    09:00 +36°C° 0.1 mm 1 mps 721 mmHg 50%
    10:00 +37°C° 0.1 mm 1 mps 721 mmHg 46%
    11:00 +39°C° 0 mm 1 mps 721 mmHg 43%
    12:00 +40°C° 0 mm 1 mps 721 mmHg 40%
    13:00 +40°C° 0 mm 1 mps 721 mmHg 38%
    14:00 +41°C° 0 mm 2 mps 720 mmHg 35%
    15:00 +42°C° 0 mm 2 mps 720 mmHg 34%
    16:00 +42°C° 0 mm 2 mps 720 mmHg 34%
    17:00 +42°C° 0 mm 2 mps 720 mmHg 33%
    18:00 +42°C° 0 mm 3 mps 720 mmHg 35%
    19:00 +42°C° 0 mm 3 mps 720 mmHg 37%
    20:00 +40°C° 0 mm 3 mps 720 mmHg 38%
    21:00 +40°C° 0.2 mm 3 mps 720 mmHg 40%
    22:00 +39°C° 0.2 mm 2 mps 721 mmHg 42%
    23:00 +39°C° 0.2 mm 2 mps 721 mmHg 43%

    Tomorrow, 22 July, Sunday

    Time Temperature Precipitation Wind Pressure Humidity
    00:00 +38°C° 0.1 mm 2 mps 721 mmHg 45%
    01:00 +38°C° 0.1 mm 2 mps 720 mmHg 46%
    02:00 +37°C° 0.1 mm 2 mps 720 mmHg 48%
    03:00 +37°C° 0.1 mm 2 mps 720 mmHg 49%
    04:00 +35°C° 0.1 mm 1 mps 720 mmHg 51%
    05:00 +35°C° 0.1 mm 1 mps 720 mmHg 53%
    06:00 +35°C° 0 mm 1 mps 720 mmHg 51%
    07:00 +36°C° 0 mm 1 mps 720 mmHg 49%
    08:00 +36°C° 0 mm 1 mps 720 mmHg 47%
    09:00 +37°C° 0 mm 1 mps 720 mmHg 44%
    10:00 +40°C° 0 mm 1 mps 720 mmHg 40%
    11:00 +41°C° 0 mm 1 mps 720 mmHg 37%
    12:00 +42°C° 0 mm 1 mps 719 mmHg 34%
    13:00 +42°C° 0 mm 2 mps 719 mmHg 32%
    14:00 +43°C° 0 mm 2 mps 719 mmHg 29%
    15:00 +45°C° 0 mm 2 mps 718 mmHg 29%
    16:00 +45°C° 0 mm 2 mps 718 mmHg 28%
    17:00 +45°C° 0 mm 3 mps 718 mmHg 28%
    18:00 +44°C° 0 mm 3 mps 718 mmHg 30%
    19:00 +44°C° 0 mm 3 mps 718 mmHg 32%
    20:00 +43°C° 0 mm 3 mps 719 mmHg 34%
    21:00 +42°C° 0.1 mm 3 mps 719 mmHg 36%
    22:00 +42°C° 0.1 mm 3 mps 720 mmHg 38%
    23:00 +40°C° 0.1 mm 3 mps 720 mmHg 39%

    Day after tomorrow, 23 July, Monday

    Time Temperature Precipitation Wind Pressure Humidity
    00:00 +39°C° 0.7 mm 3 mps 720 mmHg 44%
    01:00 +38°C° 0.7 mm 4 mps 720 mmHg 48%
    02:00 +37°C° 0.7 mm 4 mps 720 mmHg 52%
    03:00 +36°C° 0.7 mm 3 mps 720 mmHg 57%
    04:00 +35°C° 0.7 mm 3 mps 720 mmHg 62%
    05:00 +34°C° 0.7 mm 3 mps 719 mmHg 66%
    06:00 +34°C° 0.6 mm 2 mps 720 mmHg 65%
    07:00 +35°C° 0.6 mm 2 mps 720 mmHg 64%
    08:00 +35°C° 0.6 mm 2 mps 720 mmHg 63%
    09:00 +36°C° 0.5 mm 2 mps 720 mmHg 59%
    10:00 +37°C° 0.5 mm 2 mps 720 mmHg 55%
    11:00 +38°C° 0.5 mm 2 mps 720 mmHg 50%
    12:00 +39°C° 0 mm 2 mps 720 mmHg 47%
    13:00 +40°C° 0 mm 2 mps 719 mmHg 44%
    14:00 +41°C° 0 mm 2 mps 719 mmHg 41%
    15:00 +42°C° 0 mm 3 mps 719 mmHg 40%
    16:00 +43°C° 0 mm 3 mps 719 mmHg 39%
    17:00 +43°C° 0 mm 3 mps 718 mmHg 38%
    18:00 +42°C° 0.1 mm 3 mps 719 mmHg 40%
    19:00 +42°C° 0.1 mm 4 mps 719 mmHg 42%
    20:00 +41°C° 0.1 mm 4 mps 719 mmHg 44%
    21:00 +40°C° 1 mm 4 mps 720 mmHg 48%
    22:00 +38°C° 1 mm 4 mps 720 mmHg 51%
    23:00 +38°C° 1 mm 4 mps 720 mmHg 55%

    24 July, Tuesday

    Time Temperature Precipitation Wind Pressure Humidity
    00:00 +37°C° 2.8 mm 4 mps 720 mmHg 59%
    01:00 +36°C° 2.8 mm 3 mps 720 mmHg 63%
    02:00 +35°C° 2.8 mm 3 mps 720 mmHg 67%
    03:00 +34°C° 1.5 mm 3 mps 720 mmHg 69%
    04:00 +34°C° 1.5 mm 2 mps 720 mmHg 72%
    05:00 +32°C° 1.5 mm 2 mps 720 mmHg 75%
    06:00 +32°C° 0.6 mm 2 mps 720 mmHg 73%
    07:00 +34°C° 0.6 mm 2 mps 720 mmHg 71%
    08:00 +34°C° 0.6 mm 2 mps 720 mmHg 69%
    09:00 +35°C° 0.1 mm 2 mps 720 mmHg 64%
    10:00 +36°C° 0.1 mm 2 mps 721 mmHg 59%
    11:00 +38°C° 0.1 mm 2 mps 721 mmHg 54%
    12:00 +39°C° 0 mm 2 mps 720 mmHg 50%
    13:00 +40°C° 0 mm 2 mps 720 mmHg 46%
    14:00 +41°C° 0 mm 2 mps 719 mmHg 42%
    15:00 +41°C° 0 mm 2 mps 719 mmHg 41%
    16:00 +42°C° 0 mm 3 mps 719 mmHg 40%
    17:00 +43°C° 0 mm 3 mps 719 mmHg 39%
    18:00 +42°C° 0.1 mm 3 mps 719 mmHg 41%
    19:00 +41°C° 0.1 mm 4 mps 720 mmHg 44%
    20:00 +41°C° 0.1 mm 4 mps 720 mmHg 46%
    21:00 +40°C° 0.9 mm 4 mps 720 mmHg 51%
    22:00 +38°C° 0.9 mm 4 mps 721 mmHg 55%
    23:00 +37°C° 0.9 mm 4 mps 721 mmHg 59%

    25 July, Wednesday

    Time Temperature Precipitation Wind Pressure Humidity
    00:00 +36°C° 1.3 mm 3 mps 721 mmHg 61%
    01:00 +36°C° 1.3 mm 3 mps 720 mmHg 64%
    02:00 +35°C° 1.3 mm 3 mps 720 mmHg 66%
    03:00 +35°C° 1.2 mm 2 mps 720 mmHg 68%
    04:00 +34°C° 1.2 mm 2 mps 720 mmHg 69%
    05:00 +33°C° 1.2 mm 1 mps 719 mmHg 71%
    06:00 +33°C° 0.3 mm 1 mps 719 mmHg 68%
    07:00 +34°C° 0.3 mm 1 mps 720 mmHg 65%
    08:00 +34°C° 0.3 mm 1 mps 720 mmHg 63%
    09:00 +35°C° 0 mm 1 mps 720 mmHg 57%
    10:00 +36°C° 0 mm 1 mps 719 mmHg 52%
    11:00 +39°C° 0 mm 1 mps 719 mmHg 46%
    12:00 +40°C° 0 mm 2 mps 719 mmHg 43%
    13:00 +40°C° 0 mm 2 mps 718 mmHg 39%
    14:00 +41°C° 0 mm 2 mps 718 mmHg 36%
    15:00 +42°C° 0 mm 2 mps 718 mmHg 36%
    16:00 +43°C° 0 mm 3 mps 717 mmHg 35%
    17:00 +43°C° 0 mm 3 mps 717 mmHg 35%
    18:00 +43°C° 0 mm 3 mps 718 mmHg 38%
    19:00 +42°C° 0 mm 4 mps 718 mmHg 41%
    20:00 +41°C° 0 mm 4 mps 719 mmHg 44%
    21:00 +40°C° 0.2 mm 4 mps 719 mmHg 48%
    22:00 +38°C° 0.2 mm 3 mps 719 mmHg 51%
    23:00 +38°C° 0.2 mm 3 mps 719 mmHg 54%

    26 July, Thursday

    Time Temperature Precipitation Wind Pressure Humidity
    00:00 +37°C° 0.8 mm 3 mps 719 mmHg 58%
    01:00 +36°C° 0.8 mm 3 mps 719 mmHg 61%
    02:00 +35°C° 0.8 mm 2 mps 718 mmHg 65%
    03:00 +35°C° 0.5 mm 2 mps 718 mmHg 67%
    04:00 +34°C° 0.5 mm 2 mps 718 mmHg 68%
    05:00 +34°C° 0.5 mm 2 mps 718 mmHg 70%
    06:00 +34°C° 0.2 mm 2 mps 719 mmHg 67%
    07:00 +35°C° 0.2 mm 2 mps 719 mmHg 64%
    08:00 +35°C° 0.2 mm 2 mps 719 mmHg 61%
    09:00 +35°C° 0.1 mm 1 mps 719 mmHg 55%
    10:00 +37°C° 0.1 mm 1 mps 719 mmHg 48%
    11:00 +39°C° 0.1 mm 1 mps 719 mmHg 42%
    12:00 +40°C° 0 mm 1 mps 719 mmHg 38%
    13:00 +41°C° 0 mm 2 mps 719 mmHg 35%
    14:00 +42°C° 0 mm 2 mps 718 mmHg 32%
    15:00 +42°C° 0 mm 2 mps 718 mmHg 32%
    16:00 +42°C° 0 mm 2 mps 718 mmHg 32%
    17:00 +43°C° 0 mm 3 mps 718 mmHg 32%
    18:00 +43°C° 0 mm 3 mps 718 mmHg 35%
    19:00 +42°C° 0 mm 3 mps 718 mmHg 38%
    20:00 +40°C° 0 mm 3 mps 719 mmHg 41%
    21:00 +39°C° 0.2 mm 3 mps 719 mmHg 44%
    22:00 +39°C° 0.2 mm 3 mps 719 mmHg 48%
    23:00 +38°C° 0.2 mm 3 mps 719 mmHg 51%
    Show more